DW9210 Weather Reports


time (UTC)temp
C
wind
direction
speed
KPH
gust
KPH
rain 1hr
cm
rain 24hr
cm
rain mn
cm
humidity
%
barometer
mb
20260506092024 12 307 8.0 14.5 0.05 1.19 0.97 93 1006.3
20260506091503 12 306 6.4 11.3 0.05 1.17 0.94 94 1006.1
20260506091003 12 303 4.8 11.3 0.05 1.14 0.91 94 1006.0
20260506090503 12 304 8.0 14.5 0.10 1.14 0.91 94 1006.0
20260506090003 13 309 8.0 14.5 0.18 1.14 0.91 93 1005.6
20260506085503 13 302 8.0 16.1 0.20 1.14 0.91 93 1005.4
20260506085024 14 289 8.0 16.1 0.23 1.14 0.91 94 1005.3
20260506084503 14 273 3.2 12.9 0.28 1.14 0.91 96 1005.1
20260506084024 14 265 3.2 6.4 0.30 1.14 0.91 96 1005.2
20260506083503 14 258 4.8 8.0 0.30 1.14 0.91 95 1004.9
20260506083003 14 255 4.8 9.7 0.30 1.14 0.91 95 1004.8
20260506082503 14 257 3.2 9.7 0.33 1.14 0.91 95 1004.8
20260506082003 14 262 1.6 4.8 0.36 1.14 0.91 95 1004.6
20260506081503 14 267 1.6 8.0 0.38 1.12 0.89 95 1004.6
20260506081003 14 263 1.6 8.0 0.36 1.09 0.86 95 1004.5
20260506080524 14 260 1.6 8.0 0.36 1.04 0.81 95 1004.6
20260506073503 14 232 1.6 6.4 0.28 0.84 0.61 95 1004.2
20260506073003 14 240 1.6 6.4 0.28 0.84 0.61 95 1004.2
20260506072503 14 246 1.6 6.4 0.28 0.81 0.58 94 1004.3
20260506072003 14 251 1.6 6.4 0.28 0.79 0.56 94 1004.3
20260506071503 14 260 3.2 6.4 0.23 0.74 0.51 94 1004.3
20260506071003 15 269 3.2 6.4 0.30 0.74 0.51 94 1004.2
20260506070524 15 280 3.2 4.8 0.28 0.69 0.48 94 1004.3
20260506062024 15 256 4.8 12.9 0.25 0.51 0.30 93 1004.3
20260506061503 15 267 4.8 12.9 0.25 0.51 0.28 92 1004.5
20260506061003 15 265 4.8 11.3 0.18 0.43 0.20 92 1004.6
20260506060503 15 236 6.4 22.5 0.15 0.41 0.18 92 1004.5
20260506051003 15 169 1.6 6.4 0.03 0.25 0.03 92 1004.6
20260506050503 15 179 0.0 6.4 0.03 0.25 0.03 92 1004.6
20260506045003 15 150 1.6 6.4 0.10 0.25 0.03 91 1004.6
20260506044003 15 187 3.2 9.7 0.10 0.25 0.03 91 1004.8
20260506043503 15 193 3.2 11.3 0.10 0.25 0.03 90 1004.8
20260506043003 15 190 3.2 12.9 0.10 0.25 0.03 90 1005.1
20260506042503 15 188 4.8 12.9 0.08 0.23 0.00 90 1005.2
20260506042003 15 187 4.8 11.3 0.10 0.23 0.00 90 1005.3
20260506041503 15 185 3.2 11.3 0.10 0.23 0.00 91 1005.4
20260506041003 15 184 3.2 9.7 0.10 0.23 0.00 90 1005.5
20260506040503 15 178 3.2 8.0 0.10 0.23 0.00 90 1005.5
20260506040003 15 183 3.2 8.0 0.10 0.23 0.00 89 1005.7
20260506035524 15 199 3.2 8.0 0.03 0.15 0.15 88 1005.9
20260506035003 16 206 3.2 8.0 0.03 0.15 0.15 88 1005.9
20260506034503 16 204 3.2 12.9 0.03 0.15 0.15 87 1005.9
20260506034003 16 208 6.4 16.1 0.03 0.15 0.15 86 1005.8
20260506033524 16 216 6.4 16.1 0.03 0.15 0.15 85 1006.0
20260506033024 16 229 6.4 22.5 0.03 0.15 0.15 85 1006.1
20260506032503 16 232 9.7 33.8 0.03 0.15 0.15 84 1006.1
20260506032003 17 228 12.9 33.8 0.00 0.13 0.13 82 1006.2
20260506031503 17 225 12.9 30.6 0.00 0.13 0.13 80 1006.3
20260506031003 17 228 11.3 30.6 0.00 0.13 0.13 78 1006.3
20260506030503 17 233 11.3 35.4 0.00 0.13 0.13 78 1006.2
20260506030003 17 231 11.3 35.4 0.00 0.13 0.13 78 1006.2
20260506025503 17 223 8.0 24.1 0.00 0.13 0.13 80 1006.1
20260506025003 17 219 6.4 17.7 0.00 0.13 0.13 82 1006.1
20260506024503 16 214 8.0 24.1 0.00 0.13 0.13 83 1005.8
20260506024024 16 211 8.0 25.7 0.00 0.13 0.13 85 1005.8
20260506023503 16 201 4.8 25.7 0.00 0.13 0.13 88 1005.8
20260506023003 15 180 1.6 9.7 0.00 0.13 0.13 90 1005.7
20260506022503 15 150 1.6 4.8 0.00 0.13 0.13 91 1005.8
20260506022003 15 145 1.6 4.8 0.00 0.13 0.13 91 1005.7
20260506021503 15 173 1.6 4.8 0.00 0.13 0.13 91 1005.7
20260506021003 15 199 1.6 3.2 0.00 0.13 0.13 91 1005.9
20260506020503 15 207 0.0 3.2 0.00 0.13 0.13 91 1005.5
20260506020003 15 194 0.0 3.2 0.00 0.13 0.13 91 1005.5
20260506015503 15 187 0.0 3.2 0.03 0.13 0.13 91 1005.4
20260506015024 15 171 0.0 1.6 0.03 0.13 0.13 91 1005.2
20260506014524 16 166 0.0 1.6 0.05 0.13 0.13 91 1005.2
20260506014003 16 168 0.0 1.6 0.05 0.13 0.13 91 1005.2
20260506013503 16 167 0.0 3.2 0.08 0.13 0.13 90 1005.3
20260506013003 16 167 0.0 3.2 0.10 0.13 0.13 90 1005.3
20260506012503 16 168 0.0 1.6 0.10 0.13 0.13 89 1005.2
20260506012003 16 192 0.0 3.2 0.10 0.13 0.13 89 1005.3
20260506011504 16 187 0.0 4.8 0.10 0.13 0.13 88 1005.4
20260506011003 16 186 1.6 4.8 0.10 0.13 0.13 88 1005.4
20260506010503 16 167 1.6 4.8 0.10 0.13 0.13 88 1005.2
20260506010003 16 155 1.6 6.4 0.10 0.13 0.13 88 1005.1
20260506005524 16 175 3.2 8.0 0.08 0.10 0.10 88 1005.3
20260506005003 16 174 3.2 8.0 0.08 0.10 0.10 88 1005.7
20260506004504 16 150 4.8 11.3 0.05 0.08 0.08 88 1005.4
20260506004003 16 142 4.8 11.3 0.05 0.08 0.08 88 1005.2
20260506003503 16 135 3.2 11.3 0.03 0.05 0.05 91 1005.1
20260506003003 16 92 1.6 6.4 0.03 0.03 0.03 89 1005.9
20260506002503 16 353 0.0 3.2 0.03 0.03 0.03 89 1006.3
20260506002024 16 7 0.0 1.6 0.03 0.03 0.03 88 1006.1
20260506001503 17 7 0.0 1.6 0.03 0.03 0.03 87 1006.0
20260506001003 17 7 0.0 1.6 0.03 0.03 0.03 88 1006.0
20260506000503 17 7 0.0 1.6 0.03 0.03 0.03 87 1005.9
20260506000003 17 7 0.0 1.6 0.03 0.03 0.03 86 1006.0
20260505235503 17 7 0.0 1.6 0.03 0.03 0.03 85 1006.0
20260505235024 17 339 0.0 3.2 0.03 0.03 0.03 84 1006.1
20260505234503 17 284 1.6 3.2 0.03 0.03 0.03 82 1006.1
20260505234003 18 253 1.6 3.2 0.03 0.03 0.03 80 1006.2
20260505233503 18 196 1.6 4.8 0.03 0.03 0.03 78 1006.2
20260505233003 18 192 1.6 4.8 0.00 0.00 0.00 77 1006.2
20260505232503 18 194 1.6 4.8 0.00 0.00 0.00 77 1006.1
20260505232003 18 172 1.6 6.4 0.00 0.00 0.00 77 1006.1
20260505231503 18 155 1.6 6.4 0.00 0.00 0.00 76 1005.9
20260505231003 18 159 1.6 4.8 0.00 0.00 0.00 76 1005.9
20260505230503 18 150 1.6 6.4 0.00 0.00 0.00 76 1006.0
20260505230003 18 146 1.6 6.4 0.00 0.00 0.00 76 1006.1
20260505225503 18 142 1.6 6.4 0.00 0.00 0.00 76 1006.1
20260505225003 18 142 3.2 11.3 0.00 0.00 0.00 76 1006.0
20260505224503 18 139 1.6 11.3 0.00 0.00 0.00 76 1006.1
20260505224003 18 134 1.6 6.4 0.00 0.00 0.00 78 1006.1
20260505223524 18 136 3.2 8.0 0.00 0.00 0.00 78 1006.1
20260505223024 18 138 1.6 8.0 0.00 0.00 0.00 78 1006.2
20260505222503 18 143 1.6 4.8 0.00 0.00 0.00 78 1006.3
20260505222003 18 142 0.0 4.8 0.00 0.00 0.00 77 1006.3
20260505221503 18 141 0.0 3.2 0.00 0.00 0.00 77 1006.5
20260505221003 18 144 1.6 4.8 0.00 0.00 0.00 77 1006.6
20260505220503 18 143 1.6 4.8 0.00 0.00 0.00 76 1006.6
20260505220003 18 142 1.6 6.4 0.00 0.00 0.00 76 1006.8
20260505215503 18 158 1.6 6.4 0.00 0.00 0.00 76 1006.8
20260505215003 18 170 1.6 3.2 0.00 0.00 0.00 75 1006.9
20260505214503 18 176 1.6 8.0 0.00 0.00 0.00 73 1007.0
20260505214003 18 184 1.6 8.0 0.00 0.00 0.00 73 1007.1
20260505213503 18 187 3.2 9.7 0.00 0.00 0.00 74 1007.1
20260505213003 18 194 3.2 9.7 0.00 0.00 0.00 72 1007.1
20260505212524 18 203 3.2 9.7 0.00 0.00 0.00 72 1007.2
20260505212003 18 208 3.2 12.9 0.00 0.00 0.00 73 1007.2
20260505211503 18 200 4.8 12.9 0.00 0.00 0.00 73 1007.2
20260505211003 18 202 4.8 12.9 0.00 0.00 0.00 73 1007.2
20260505210503 18 212 6.4 24.1 0.00 0.00 0.00 72 1007.2
20260505210003 18 215 6.4 24.1 0.00 0.00 0.00 72 1007.3
20260505205503 19 218 6.4 14.5 0.00 0.00 0.00 72 1007.3
20260505205003 19 219 6.4 17.7 0.00 0.00 0.00 72 1007.3
20260505204503 19 219 8.0 17.7 0.00 0.00 0.00 73 1007.3
20260505204003 20 218 6.4 22.5 0.00 0.00 0.00 72 1007.3
20260505203503 20 212 8.0 25.7 0.00 0.00 0.00 70 1007.3
20260505203003 20 208 8.0 25.7 0.00 0.00 0.00 69 1007.2
20260505202503 20 205 9.7 32.2 0.00 0.00 0.00 67 1007.2
20260505202003 21 204 9.7 32.2 0.00 0.00 0.00 65 1007.2
20260505201503 21 199 6.4 20.9 0.00 0.00 0.00 64 1007.1
20260505201003 21 203 8.0 20.9 0.00 0.00 0.00 62 1007.1
20260505200503 21 211 8.0 22.5 0.00 0.00 0.00 61 1007.2
20260505200003 21 207 8.0 30.6 0.00 0.00 0.00 61 1007.2
20260505195503 21 203 9.7 30.6 0.00 0.00 0.00 60 1007.3
20260505195003 21 199 8.0 30.6 0.00 0.00 0.00 60 1007.3
20260505194503 22 207 6.4 17.7 0.00 0.00 0.00 61 1007.4
20260505194003 22 214 6.4 20.9 0.00 0.00 0.00 61 1007.4
20260505193503 22 214 9.7 22.5 0.00 0.00 0.00 60 1007.6
20260505193003 22 211 9.7 25.7 0.00 0.00 0.00 59 1007.8
20260505192524 22 203 6.4 25.7 0.00 0.00 0.00 61 1007.9
20260505192003 22 205 6.4 22.5 0.00 0.00 0.00 60 1007.9
20260505191503 22 203 9.7 30.6 0.00 0.00 0.00 60 1008.1
20260505191003 22 204 11.3 30.6 0.00 0.00 0.00 58 1008.1
20260505190503 22 205 9.7 24.1 0.00 0.00 0.00 60 1008.2
20260505190003 22 197 8.0 20.9 0.00 0.00 0.00 60 1008.2
20260505185503 21 203 8.0 20.9 0.00 0.00 0.00 60 1008.2
20260505185003 21 212 9.7 27.4 0.00 0.00 0.00 60 1008.2
20260505184524 22 211 9.7 27.4 0.00 0.00 0.00 59 1008.1
20260505184003 22 203 8.0 29.0 0.00 0.00 0.00 59 1008.1
20260505183503 22 202 8.0 29.0 0.00 0.00 0.00 60 1008.3
20260505183024 22 212 6.4 24.1 0.00 0.00 0.00 65 1008.4
20260505182524 22 212 8.0 24.1 0.00 0.00 0.00 62 1008.5
20260505182003 21 211 8.0 24.1 0.00 0.00 0.00 62 1008.5
20260505181503 21 214 6.4 24.1 0.00 0.00 0.00 62 1008.5
20260505181003 21 214 4.8 16.1 0.00 0.00 0.00 63 1008.6
20260505180524 21 208 6.4 20.9 0.00 0.00 0.00 62 1008.5
20260505180003 21 213 8.0 24.1 0.00 0.00 0.00 63 1008.5
20260505175503 21 212 8.0 24.1 0.00 0.00 0.00 61 1008.5
20260505175024 21 209 6.4 22.5 0.00 0.00 0.00 62 1008.5
20260505174503 21 207 8.0 22.5 0.00 0.00 0.00 64 1008.6
20260505174003 21 205 9.7 19.3 0.00 0.00 0.00 64 1008.7
20260505173503 21 218 9.7 32.2 0.00 0.00 0.00 62 1008.8
20260505173003 21 217 11.3 37.0 0.00 0.00 0.00 62 1009.0
20260505172503 21 211 9.7 37.0 0.00 0.00 0.00 61 1009.0
20260505172003 22 213 8.0 29.0 0.00 0.00 0.00 62 1009.0
20260505171503 22 214 6.4 20.9 0.00 0.00 0.00 63 1009.0
20260505171003 21 218 6.4 22.5 0.00 0.00 0.00 63 1009.1
20260505170503 21 216 8.0 29.0 0.00 0.00 0.00 63 1009.1
20260505170003 21 213 9.7 29.0 0.00 0.00 0.00 62 1009.1
20260505165503 21 213 9.7 24.1 0.00 0.00 0.00 62 1009.1
20260505165024 21 211 9.7 27.4 0.00 0.00 0.00 61 1009.2
20260505164503 21 206 9.7 27.4 0.00 0.00 0.00 61 1009.1
20260505164003 21 205 8.0 19.3 0.00 0.00 0.00 63 1009.1
20260505163503 21 206 6.4 24.1 0.00 0.00 0.00 63 1009.2
20260505163003 21 206 8.0 24.1 0.00 0.00 0.00 64 1009.3
20260505162524 21 206 9.7 27.4 0.00 0.00 0.00 64 1009.3
20260505162003 21 205 9.7 27.4 0.00 0.00 0.00 63 1009.3
20260505161524 21 203 8.0 25.7 0.00 0.00 0.00 64 1009.4
20260505161003 21 204 9.7 25.7 0.00 0.00 0.00 64 1009.5
20260505160503 21 201 8.0 20.9 0.00 0.00 0.00 63 1009.4
20260505153003 20 204 8.0 22.5 0.00 0.00 0.00 66 1009.2
20260505152503 20 202 8.0 25.7 0.00 0.00 0.00 63 1009.1
20260505152003 20 202 8.0 25.7 0.00 0.00 0.00 64 1009.1
20260505151503 20 203 8.0 16.1 0.00 0.00 0.00 64 1009.1
20260505151003 20 209 6.4 22.5 0.00 0.00 0.00 65 1009.1
20260505150503 20 204 6.4 22.5 0.00 0.00 0.00 66 1009.2
20260505140524 18 198 4.8 14.5 0.00 0.10 0.00 66 1009.1
20260505125024 18 183 3.2 14.5 0.00 0.25 0.00 68 1009.4
20260505124503 18 185 3.2 11.3 0.00 0.25 0.00 68 1009.6
20260505124003 18 194 3.2 9.7 0.00 0.25 0.00 68 1009.5
20260505123503 18 201 3.2 8.0 0.00 0.28 0.00 68 1009.5
20260505123003 17 200 1.6 8.0 0.00 0.28 0.00 68 1009.4
20260505122524 17 199 3.2 8.0 0.00 0.30 0.00 69 1009.4
20260505122003 17 204 3.2 8.0 0.00 0.30 0.00 68 1009.4
20260505121503 17 222 1.6 4.8 0.00 0.30 0.00 69 1009.4
20260505121003 17 231 3.2 4.8 0.00 0.30 0.00 70 1009.4
20260505120503 17 232 1.6 4.8 0.00 0.30 0.00 70 1009.4
20260505120004 16 231 1.6 4.8 0.00 0.30 0.00 71 1009.3
20260505115503 16 237 1.6 8.0 0.00 0.30 0.00 72 1009.4
20260505115003 16 230 3.2 8.0 0.00 0.30 0.00 72 1009.5
20260505114503 16 228 3.2 6.4 0.00 0.30 0.00 71 1009.4
20260505114003 16 241 1.6 8.0 0.00 0.30 0.00 71 1009.4
20260505113503 16 249 3.2 14.5 0.00 0.30 0.00 71 1009.6
20260505113003 16 256 4.8 14.5 0.00 0.30 0.00 71 1009.6
20260505112503 16 258 4.8 9.7 0.00 0.30 0.00 71 1009.6
20260505112003 16 245 3.2 11.3 0.00 0.30 0.00 71 1009.6
20260505111503 16 241 3.2 11.3 0.00 0.30 0.00 72 1009.3
20260505111003 16 246 3.2 8.0 0.00 0.30 0.00 71 1009.3
20260505110503 16 247 4.8 16.1 0.00 0.30 0.00 72 1009.2
20260505102003 15 219 3.2 11.3 0.00 0.36 0.00 71 1008.4
20260505101524 15 216 3.2 11.3 0.00 0.36 0.00 71 1008.3
20260505101003 15 212 3.2 11.3 0.00 0.36 0.00 71 1008.2
20260505100503 16 213 4.8 11.3 0.00 0.36 0.00 71 1008.1
20260505100003 16 209 4.8 16.1 0.00 0.38 0.00 70 1008.0
20260505095503 16 202 3.2 16.1 0.00 0.38 0.00 71 1008.0
20260505095003 16 207 3.2 9.7 0.00 0.43 0.00 71 1007.8
20260505094503 16 214 3.2 12.9 0.00 0.48 0.00 70 1007.8
20260505094024 16 211 4.8 16.1 0.00 0.48 0.00 70 1007.8
20260505093524 16 210 4.8 16.1 0.00 0.51 0.00 70 1007.8
20260505093003 16 213 4.8 11.3 0.00 0.51 0.00 69 1007.7
20260505092503 16 208 4.8 14.5 0.00 0.51 0.00 69 1007.8